PLATFORM,ARGOS_ID,DATE (YYYY/MM/DD HH:MI:SS),LATITUDE (degree_north),LONGITUDE (degree_east),TEMP LEVEL0 (degree_Celsius),EWCT LEVEL1 (meter/second),NSCT LEVEL1 (meter/second),QC,SVP_RCBN_Number,SVP_GNRL_ImmPercent,SVP_GNRL_BattVolt
IF000215,66566,2006/09/08 20:00:40,48.3594,-4.5593,19.88,,,00044499,1,0,12.6
IF000215,66566,2006/09/08 21:00:10,48.3594,-4.5593,18.68,0,0,00044400,1,0,12.6
IF000215,66566,2006/09/08 22:00:16,48.3594,-4.5593,17.56,0,0,00044400,1,0,12.6
IF000215,66566,2006/09/08 23:00:40,48.3592,-4.5593,16.84,0,-0.006137,00044400,1,0,12.6
IF000215,66566,2006/09/09 00:00:34,48.3594,-4.5593,16.2,0,0.006188,00044400,5,0,12.6
IF000215,66566,2006/09/09 01:00:07,48.3595,-4.5594,15.72,-0.002068,0.003112,00044400,5,0,12.6
IF000215,66566,2006/09/09 02:00:16,48.3593,-4.5593,15.4,0.002047,-0.006162,00044400,3,0,12.6
IF000215,66566,2006/09/09 03:00:16,48.3594,-4.5592,15.32,0.002052,0.003089,00044400,1,0,12.6
IF000215,66566,2006/09/09 04:00:40,48.3594,-4.5593,15.72,-0.002039,0,00044400,3,0,12.6
IF000215,66566,2006/09/09 05:00:10,48.3593,-4.5596,15.96,-0.006209,-0.003115,00044400,7,0,12.6
IF000215,66566,2006/09/09 06:00:11,48.3593,-4.5594,15.88,0.004104,0,00044400,6,0,12.6
IF000215,66566,2006/09/09 07:00:16,48.3596,-4.5585,16.04,0.018445,0.009253,00044400,5,0,12.6
IF000215,66566,2006/09/09 08:00:40,48.3593,-4.5593,31.48,-0.01631,-0.009205,00044400,3,0,12.6
IF000215,66566,2006/09/09 09:00:11,48.3593,-4.5593,35.88,0,0,00044400,8,0,12.6
IF000215,66566,2006/09/09 10:00:10,48.3594,-4.5595,35.88,-0.004106,0.00309,00044400,5,0,12.6
IF000215,66566,2006/09/09 11:00:40,48.3593,-4.5593,35.88,0.004071,-0.003063,00044400,5,0,12.6
IF000215,66566,2006/09/09 12:00:10,48.3593,-4.5593,35.88,0,0,00044400,5,0,12.6
IF000215,66566,2006/09/09 13:00:16,48.3593,-4.5594,35.88,-0.002049,0,00044400,6,0,12.6
IF000215,66566,2006/09/09 14:00:40,48.3593,-4.5593,35.88,0.002039,0,00044400,6,0,12.6
IF000215,66566,2006/09/09 15:00:06,48.3592,-4.5593,35.88,0,-0.003118,00044400,7,0,12.6
IF000215,66566,2006/09/09 16:00:17,48.3592,-4.5592,32.68,0.002046,0,00044400,4,0,12.6
IF000215,66566,2006/09/09 17:00:40,48.3594,-4.5593,30.2,-0.002039,0.006138,00044400,1,0,12.6
IF000215,66566,2006/09/09 18:00:17,48.3593,-4.5594,28.6,-0.002066,-0.003109,00044400,1,0,12.6
IF000215,66566,2006/09/09 19:00:12,48.3591,-4.5592,23.24,0.00411,-0.006186,00044400,1,0,12.6
IF000215,66566,2006/09/09 20:00:40,48.3594,-4.5592,21.08,0,0.009195,00044400,1,0,12.6
IF000215,66566,2006/09/09 21:00:16,48.3593,-4.5593,20.04,-0.002066,-0.003109,00044400,4,0,12.6
IF000215,66566,2006/09/09 22:00:16,48.3594,-4.5593,18.2,0,0.003089,00044400,3,0,12.6
IF000215,66566,2006/09/09 23:00:40,48.3593,-4.5594,16.84,-0.002039,-0.003068,00044400,3,0,12.6
IF000215,66566,2006/09/10 00:00:11,48.3594,-4.5593,16.6,0.002069,0.003114,00044400,5,0,12.6
IF000215,66566,2006/09/10 01:00:40,48.3594,-4.5592,16.44,0.002036,0,00044400,1,0,12.6
IF000215,66566,2006/09/10 02:00:16,48.3594,-4.5593,16.12,-0.002066,0,00044400,3,0,12.6
IF000215,66566,2006/09/10 03:00:16,48.3594,-4.5593,15.88,0,0,00044400,4,0,12.6
IF000215,66566,2006/09/10 04:00:40,48.3594,-4.5593,16.52,0,0,00044400,5,0,12.6
IF000215,66566,2006/09/10 05:00:11,48.3593,-4.5593,16.92,0,-0.003114,00044400,4,0,12.6
IF000215,66566,2006/09/10 06:00:16,48.3594,-4.5591,16.68,0.004099,0.003084,00044400,4,0,12.6
IF000215,66566,2006/09/10 07:00:16,48.3590,-4.5596,17.8,-0.010262,-0.012355,00044400,5,0,12.6
IF000215,66566,2006/09/10 08:00:40,48.3594,-4.5593,19,0.006116,0.012273,00044400,4,0,12.6
IF000215,66566,2006/09/10 09:00:10,48.3594,-4.5593,21.08,0,0,00044400,1,0,12.6
IF000215,66566,2006/09/10 10:00:09,48.3595,-4.5593,27,0,0.00309,00044400,4,0,12.6
IF000215,66566,2006/09/10 11:00:35,48.3593,-4.5593,32.84,0,-0.006133,00044400,1,0,12.6
IF000215,66566,2006/09/10 12:00:11,48.3593,-4.5593,35.88,0,0,00044400,1,0,12.6
IF000215,66566,2006/09/10 13:00:16,48.3594,-4.5593,35.88,0,0.003084,00044400,1,0,12.6
IF000215,66566,2006/09/10 14:00:00,48.0677,-4.2298,31.8,6.81103,-9.05041,00044400,1,0,12.6
IF000215,66566,2006/09/10 16:00:00,47.7501,-3.8664,30.92,3.76196,-4.90524,00044400,1,0,12.6
IF000215,66566,2006/09/10 18:00:00,47.4324,-3.5030,31.24,3.78499,-4.90524,00044400,1,0,12.6
IF000215,66566,2006/09/10 19:00:00,47.2736,-3.3213,30.28,3.80218,-4.90524,00044400,1,0,12.6
IF000215,66566,2006/09/10 20:00:00,47.1148,-3.1397,29.4,3.81361,-4.90524,00044400,1,0,12.6
IF000215,66566,2006/09/10 21:00:00,46.9560,-2.9580,28.68,3.8248,-4.90555,00044400,1,0,12.6
IF000215,66566,2006/09/10 22:00:00,46.7972,-2.7763,27.4,3.83638,-4.90524,00044400,1,0,12.6
IF000215,66566,2006/09/10 23:00:00,46.6384,-2.5946,26.28,3.84772,-4.90524,00044400,1,0,12.6
IF000215,66566,2006/09/11 00:00:00,46.4796,-2.4129,25.32,3.85903,-4.90524,00044400,1,0,12.6
IF000215,66566,2006/09/11 01:00:00,46.3208,-2.2312,24.76,3.87031,-4.90524,00044400,1,0,12.6
IF000215,66566,2006/09/11 02:00:00,46.1620,-2.0495,24.12,3.88156,-4.90524,00044400,1,0,12.6
IF000215,66566,2006/09/11 03:00:00,46.0031,-1.8678,23.64,3.89256,-4.90524,00044400,1,0,12.6
IF000215,66566,2006/09/11 04:00:00,45.8443,-1.6861,23.16,3.90397,-4.90524,00044400,1,0,12.6
IF000215,66566,2006/09/11 05:00:00,45.6855,-1.5044,22.76,3.91513,-4.90524,00044400,3,0,12.6
IF000215,66566,2006/09/11 06:00:00,45.5267,-1.3227,22.36,3.92626,-4.90524,00044400,1,0,12.5
IF000215,66566,2006/09/11 07:00:00,45.3679,-1.1410,22.12,3.93736,-4.90524,00044400,5,0,12.5
IF000215,66566,2006/09/11 08:00:00,45.2091,-0.9593,22.6,3.94843,-4.90524,00044400,7,0,12.5
IF000215,66566,2006/09/11 09:00:00,45.0503,-0.7776,23.88,3.95947,-4.90524,00044400,5,0,12.5
IF000215,66566,2006/09/11 10:02:37,44.8598,-0.5537,27.96,4.68884,-5.63788,00044400,5,0,12.5
IF000215,66566,2006/09/11 11:00:42,44.8640,-0.5438,33.4,0.223896,0.134008,00044400,9,0,12.5
IF000215,66566,2006/09/11 12:00:11,45.0646,-0.6402,35.88,-2.12506,6.24985,00044400,3,0,12.5
IF000215,66566,2006/09/11 13:00:12,45.2960,-0.7644,35.88,-2.70332,7.14538,00044400,5,0,12.5
IF000215,66566,2006/09/11 14:00:40,45.4772,-0.9316,35.16,-3.59906,5.55362,00044400,5,0,12.5
IF000215,66566,2006/09/11 15:00:13,45.6004,-1.0657,35.24,-2.9231,3.83409,00044400,5,0,12.5
IF000215,66566,2006/09/11 16:00:13,45.6563,-1.2449,27.8,-3.8707,1.72661,00044400,4,0,12.5
IF000215,66566,2006/09/11 17:00:37,45.6606,-1.4814,25.4,-5.07182,0.131937,00044400,3,0,12.5
IF000215,66566,2006/09/11 18:00:36,45.6970,-1.7412,23.96,-5.60816,1.12462,00044400,4,0,12.5
IF000215,66566,2006/09/11 19:00:42,45.7381,-2.0024,22.52,-5.62354,1.26736,00044400,3,0,12.5
IF000215,66566,2006/09/11 20:00:40,45.7945,-2.2638,21.32,-5.63544,1.74302,00044400,5,0,12.5
IF000215,66566,2006/09/11 21:00:13,45.8424,-2.5223,21,-5.60666,1.49069,00044400,3,0,12.5
IF000215,66566,2006/09/11 22:00:41,45.8417,-2.5462,20.6,-0.510297,-0.021454,00044100,5,3,12.5
IF000215,66566,2006/09/11 23:00:18,45.8415,-2.5578,20.52,-0.251209,-0.006217,00011100,6,4,12.5
IF000215,66566,2006/09/12 00:00:36,45.8450,-2.5651,20.44,-0.156292,0.107568,00011100,6,7,12.5
IF000215,66566,2006/09/12 01:00:41,45.8520,-2.5652,20.44,-0.002149,0.215912,00011100,5,20,12.5
IF000215,66566,2006/09/12 02:00:17,45.8602,-2.5583,20.44,0.149429,0.254977,00011100,7,31,12.5
IF000215,66566,2006/09/12 03:00:11,45.8667,-2.5475,20.44,0.232686,0.201104,00011100,10,53,12.5
IF000215,66566,2006/09/12 04:00:41,45.8704,-2.5366,20.36,0.232491,0.113339,00011100,6,52,12.5
IF000215,66566,2006/09/12 05:00:12,45.8698,-2.5292,20.28,0.160441,-0.018683,00011100,9,39,12.5
IF000215,66566,2006/09/12 06:00:12,45.8667,-2.5262,20.36,0.064522,-0.095751,00011100,9,26,12.5
IF000215,66566,2006/09/12 07:00:08,45.8625,-2.5258,20.52,0.008613,-0.129872,00011100,6,38,12.4
IF000215,66566,2006/09/12 08:00:41,45.8582,-2.5294,20.52,-0.076734,-0.13161,00011100,7,39,12.5
IF000215,66566,2006/09/12 09:00:11,45.8545,-2.5360,20.52,-0.143172,-0.115244,00011100,8,38,12.5
IF000215,66566,2006/09/12 10:00:11,45.8516,-2.5459,20.52,-0.21298,-0.089574,00011100,5,41,12.5
IF000215,66566,2006/09/12 11:00:41,45.8506,-2.5575,20.44,-0.247499,-0.030632,00011100,6,52,12.5
IF000215,66566,2006/09/12 12:00:12,45.8523,-2.5662,20.44,-0.18869,0.052935,00011100,6,46,12.5
IF000215,66566,2006/09/12 13:00:12,45.8570,-2.5690,20.6,-0.060235,0.145171,00011100,3,55,12.5
IF000215,66566,2006/09/12 14:01:05,45.8642,-2.5652,20.52,0.080553,0.219163,00011100,4,79,12.5
IF000215,66566,2006/09/12 15:00:12,45.8712,-2.5567,20.52,0.185545,0.219443,00011100,5,77,12.5
IF000215,66566,2006/09/12 16:00:13,45.8752,-2.5463,20.52,0.223594,0.123516,00011100,8,66,12.5
IF000215,66566,2006/09/12 17:01:11,45.8761,-2.5383,20.68,0.169308,0.027358,00011100,8,60,12.5
IF000215,66566,2006/09/12 18:00:12,45.8735,-2.5335,20.68,0.104943,-0.081646,00011100,3,55,12.5
IF000215,66566,2006/09/12 19:00:12,45.8698,-2.5317,20.6,0.038711,-0.114284,00011100,5,46,12.5
IF000215,66566,2006/09/12 20:00:39,45.8658,-2.5331,20.6,-0.029886,-0.12263,00011100,4,28,12.5
IF000215,66566,2006/09/12 21:00:12,45.8620,-2.5371,20.6,-0.086686,-0.118259,00011100,6,19,12.5
IF000215,66566,2006/09/12 22:00:12,45.8590,-2.5454,20.6,-0.178535,-0.092662,00011100,6,34,12.5
IF000215,66566,2006/09/12 23:00:35,45.8575,-2.5560,20.52,-0.226571,-0.046037,00011100,4,22,12.5
IF000215,66566,2006/09/13 00:00:13,45.8585,-2.5646,20.52,-0.186134,0.031077,00011100,5,26,12.5
IF000215,66566,2006/09/13 01:00:12,45.8623,-2.5684,20.52,-0.081762,0.117405,00011100,5,23,12.5
IF000215,66566,2006/09/13 02:00:41,45.8686,-2.5659,20.44,0.053341,0.193036,00011100,9,46,12.5
IF000215,66566,2006/09/13 03:00:12,45.8752,-2.5581,20.36,0.169108,0.205513,00011100,10,61,12.5
IF000215,66566,2006/09/13 04:00:11,45.8804,-2.5476,20.28,0.22585,0.16066,00011100,5,52,12.5
IF000215,66566,2006/09/13 05:00:11,45.8814,-2.5385,20.28,0.195672,0.030887,00011100,7,53,12.5
IF000215,66566,2006/09/13 06:00:41,45.8793,-2.5332,20.36,0.113022,-0.064328,00011100,8,34,12.5
IF000215,66566,2006/09/13 07:00:12,45.8757,-2.5312,20.52,0.043357,-0.112098,00011100,10,30,12.5
IF000215,66566,2006/09/13 08:00:13,45.8717,-2.5331,20.52,-0.040848,-0.123516,00011100,10,41,12.5
IF000215,66566,2006/09/13 09:00:36,45.8686,-2.5369,20.52,-0.081206,-0.095143,00011100,7,63,12.5
IF000215,66566,2006/09/13 10:00:12,45.8662,-2.5435,20.6,-0.142903,-0.074627,00011100,4,69,12.5
IF000215,66566,2006/09/13 11:00:11,45.8648,-2.5527,20.6,-0.197932,-0.043254,00011100,7,76,12.5
IF000215,66566,2006/09/13 12:00:36,45.8649,-2.5617,20.6,-0.192242,0.003067,00011100,7,71,12.5
IF000215,66566,2006/09/13 13:00:12,45.8677,-2.5686,20.6,-0.149401,0.087065,00011100,8,68,12.5
IF000215,66566,2006/09/13 14:00:11,45.8726,-2.5703,20.52,-0.036571,0.151391,00011100,8,68,12.5
IF000215,66566,2006/09/13 15:00:17,45.8799,-2.5668,20.52,0.075139,0.225103,00011100,4,60,12.5
IF000215,66566,2006/09/13 16:00:41,45.8863,-2.5592,20.52,0.162329,0.196371,00011100,4,80,12.5
IF000215,66566,2006/09/13 17:00:09,45.8905,-2.5509,20.6,0.180046,0.130891,00011100,4,84,12.5
IF000215,66566,2006/09/13 18:00:23,45.8908,-2.5447,20.6,0.132775,0.00923,00011100,1,57,12.5
IF000215,66566,2006/09/13 19:00:41,45.8894,-2.5404,20.6,0.091985,-0.043027,00011100,4,73,12.5
IF000215,66566,2006/09/13 20:00:12,45.8863,-2.5383,20.52,0.045516,-0.096529,00011100,7,55,12.5
IF000215,66566,2006/09/13 21:00:11,45.8838,-2.5384,20.52,-0.002151,-0.07724,00011100,6,74,12.5
IF000215,66566,2006/09/13 22:00:41,45.8809,-2.5414,20.52,-0.063972,-0.088833,00011100,6,80,12.5
IF000215,66566,2006/09/13 23:00:13,45.8787,-2.5481,20.52,-0.145198,-0.068485,00011100,5,90,12.5
IF000215,66566,2006/09/14 00:00:13,45.8775,-2.5560,20.52,-0.169877,-0.037065,00011100,4,92,12.5
IF000215,66566,2006/09/14 01:00:41,45.8782,-2.5630,20.52,-0.149363,0.021454,00011100,4,85,12.5
IF000215,66566,2006/09/14 02:00:12,45.8815,-2.5664,20.52,-0.073703,0.102756,00011100,6,84,12.5
IF000215,66566,2006/09/14 03:00:29,45.8869,-2.5651,20.52,0.02782,0.166008,00011100,5,100,12.5
IF000215,66566,2006/09/14 04:00:41,45.8928,-2.5598,20.44,0.113566,0.181631,00011100,7,96,12.5
IF000215,66566,2006/09/14 05:00:12,45.8968,-2.5534,20.44,0.138698,0.124553,00011100,7,100,12.5
IF000215,66566,2006/09/14 06:00:18,45.8978,-2.5475,20.36,0.126616,0.030836,00011100,7,100,12.5
IF000215,66566,2006/09/14 07:00:23,45.8977,-2.5432,20.36,0.092304,-0.003084,00011100,5,100,12.5
IF000215,66566,2006/09/14 08:01:25,45.8961,-2.5409,20.36,0.048604,-0.048583,00011100,3,100,12.5
IF000215,66566,2006/09/14 09:00:29,45.8940,-2.5398,20.36,0.02402,-0.065889,00011100,4,100,12.5
IF000215,66566,2006/09/14 10:00:10,45.8925,-2.5395,20.36,0.006484,-0.046577,00011100,6,100,12.5
IF000215,66566,2006/09/14 11:02:02,45.8898,-2.5417,20.36,-0.045869,-0.08088,00011100,6,100,12.5
IF000215,66566,2006/09/14 12:00:16,45.8879,-2.5461,20.36,-0.097467,-0.060467,00011100,4,100,12.5
IF000215,66566,2006/09/14 13:00:17,45.8861,-2.5518,20.28,-0.122516,-0.055582,00011100,1,100,12.5
IF000215,66566,2006/09/14 14:03:37,45.8863,-2.5567,20.28,-0.099807,0.005852,00011100,5,98,12.5
IF000215,66566,2006/09/14 15:00:06,45.8880,-2.5578,20.28,-0.025122,0.055778,00011100,7,100,12.5
IF000215,66566,2006/09/14 16:00:11,45.8921,-2.5547,20.28,0.066554,0.126463,00011100,3,100,12.5
IF000215,66566,2006/09/14 17:00:16,45.8954,-2.5493,20.2,0.115925,0.101787,00011100,3,100,12.5
IF000215,66566,2006/09/14 18:01:40,45.8971,-2.5433,20.12,0.126038,0.051311,00011100,4,100,12.5
IF000215,66566,2006/09/14 19:00:06,45.8968,-2.5386,20.04,0.103741,-0.009515,00011100,1,100,12.5
IF000215,66566,2006/09/14 20:00:06,45.8946,-2.5352,20.04,0.073089,-0.067952,00011100,3,100,12.5
IF000215,66566,2006/09/14 21:00:09,45.8918,-2.5325,19.96,0.057995,-0.086413,00011100,5,100,12.5
IF000215,66566,2006/09/14 22:01:40,45.8891,-2.5298,19.88,0.056615,-0.08134,00011100,5,100,12.5
IF000215,66566,2006/09/14 23:00:09,45.8865,-2.5300,19.88,-0.004411,-0.08239,00011100,1,100,12.5
IF000215,66566,2006/09/15 00:00:29,45.8832,-2.5322,19.88,-0.047041,-0.101366,00011100,8,100,12.5
IF000215,66566,2006/09/15 01:01:33,45.8798,-2.5363,19.88,-0.086619,-0.103183,00011100,3,100,12.5
IF000215,66566,2006/09/15 02:00:11,45.8791,-2.5401,19.88,-0.083616,-0.022125,00011100,5,100,12.5
IF000215,66566,2006/09/15 03:00:22,45.8795,-2.5411,19.8,-0.021438,0.012317,00011100,3,100,12.5
IF000215,66566,2006/09/15 04:02:04,45.8818,-2.5388,19.8,0.048093,0.069084,00011100,5,100,12.5
IF000215,66566,2006/09/15 05:00:11,45.8844,-2.5340,19.72,0.106552,0.08291,00011100,7,100,12.5
IF000215,66566,2006/09/15 06:00:16,45.8855,-2.5279,19.72,0.130973,0.033929,00011100,8,100,12.5
IF000215,66566,2006/09/15 07:00:22,45.8850,-2.5225,19.64,0.115911,-0.015418,00011100,4,100,12.5
IF000215,66566,2006/09/15 08:01:09,45.8834,-2.5184,19.64,0.087018,-0.048783,00011100,4,100,12.5
IF000215,66566,2006/09/15 09:00:12,45.8810,-2.5157,19.64,0.058989,-0.075323,00011100,8,100,12.5
IF000215,66566,2006/09/15 10:00:29,45.8781,-2.5145,19.64,0.025682,-0.089153,00011100,5,100,12.5
IF000215,66566,2006/09/15 11:02:10,45.8762,-2.5147,19.64,-0.004183,-0.057085,00011100,7,100,12.5
IF000215,66566,2006/09/15 12:00:11,45.8741,-2.5165,19.64,-0.040032,-0.067081,00011100,5,100,12.5
IF000215,66566,2006/09/15 13:00:17,45.8718,-2.5217,19.64,-0.111642,-0.070923,00011100,5,100,12.5
IF000215,66566,2006/09/15 14:01:01,45.8707,-2.5276,19.64,-0.125354,-0.033566,00011100,7,100,12.4
IF000215,66566,2006/09/15 15:00:15,45.8709,-2.5321,19.56,-0.098031,0.006257,00011100,1,100,12.4
IF000215,66566,2006/09/15 16:00:28,45.8738,-2.5337,19.56,-0.034285,0.089251,00011100,1,100,12.4
IF000215,66566,2006/09/15 17:01:08,45.8773,-2.5319,19.48,0.038283,0.106918,00011100,4,100,12.4
IF000215,66566,2006/09/15 18:00:40,45.8811,-2.5277,19.48,0.091021,0.118292,00011100,1,100,12.4
IF000215,66566,2006/09/15 19:00:17,45.8844,-2.5220,19.48,0.123348,0.102584,00011100,4,100,12.4
IF000215,66566,2006/09/15 20:01:28,45.8856,-2.5165,19.48,0.115967,0.036348,00011100,1,100,12.4
IF000215,66566,2006/09/15 21:00:17,45.8852,-2.5116,19.4,0.107473,-0.012604,00011100,4,100,12.4
IF000215,66566,2006/09/15 22:02:10,45.8837,-2.5070,19.32,0.095895,-0.044921,00011100,3,100,12.4
IF000215,66566,2006/09/15 23:00:23,45.8817,-2.5041,19.24,0.064265,-0.063667,00011100,3,98,12.4
IF000215,66566,2006/09/16 00:00:22,45.8786,-2.5035,19.24,0.012905,-0.095778,00011100,4,100,12.4
IF000215,66566,2006/09/16 01:01:03,45.8758,-2.5053,19.24,-0.038271,-0.085511,00011100,7,100,12.4
IF000215,66566,2006/09/16 02:00:29,45.8733,-2.5100,19.24,-0.102036,-0.077955,00011100,6,100,12.4
IF000215,66566,2006/09/16 03:01:11,45.8717,-2.5160,19.32,-0.127546,-0.04885,00011100,7,100,12.4
IF000215,66566,2006/09/16 04:00:29,45.8727,-2.5203,19.32,-0.093566,0.031252,00011100,6,100,12.4
IF000215,66566,2006/09/16 05:00:07,45.8757,-2.5213,19.24,-0.021637,0.093232,00011100,7,100,12.4
IF000215,66566,2006/09/16 06:01:28,45.8795,-2.5204,19.24,0.018927,0.11479,00011100,5,100,12.4
IF000215,66566,2006/09/16 07:00:18,45.8837,-2.5173,19.16,0.067978,0.1323,00011100,4,100,12.4
IF000215,66566,2006/09/16 08:01:22,45.8863,-2.5132,19.08,0.086613,0.078905,00011100,1,100,12.4
IF000215,66566,2006/09/16 09:00:10,45.8884,-2.5082,19,0.109693,0.066187,00011100,4,100,12.4
IF000215,66566,2006/09/16 10:01:40,45.8886,-2.5025,19,0.119558,0.006027,00011100,7,100,12.4
IF000215,66566,2006/09/16 11:01:10,45.8876,-2.4970,19,0.119241,-0.031147,00011100,3,100,12.4
IF000215,66566,2006/09/16 12:00:22,45.8858,-2.4934,19,0.078446,-0.056349,00011100,6,100,12.4
IF000215,66566,2006/09/16 13:00:11,45.8828,-2.4914,19,0.043134,-0.092946,00011100,9,100,12.4
IF000215,66566,2006/09/16 14:01:28,45.8782,-2.4931,19,-0.035789,-0.139107,00011100,6,100,12.4
IF000215,66566,2006/09/16 15:00:17,45.8756,-2.4977,18.92,-0.100908,-0.081923,00011100,4,100,12.4
IF000215,66566,2006/09/16 16:00:11,45.8735,-2.5023,18.92,-0.099087,-0.064972,00011100,3,100,12.4
IF000215,66566,2006/09/16 17:00:22,45.8743,-2.5061,18.92,-0.08147,0.024635,00011100,5,100,12.4
IF000215,66566,2006/09/16 18:01:28,45.8760,-2.5077,18.92,-0.033788,0.051563,00011100,3,100,12.4
IF000215,66566,2006/09/16 19:00:12,45.8796,-2.5069,18.92,0.017574,0.113593,00011100,3,100,12.4
IF000215,66566,2006/09/16 20:00:27,45.8829,-2.5044,18.92,0.053533,0.101506,00011100,4,100,12.4
IF000215,66566,2006/09/16 21:00:10,45.8855,-2.5010,18.92,0.073451,0.080688,00011100,5,100,12.4
IF000215,66566,2006/09/16 22:01:03,45.8875,-2.4965,18.92,0.095347,0.060879,00011100,6,100,12.4
IF000215,66566,2006/09/16 23:00:17,45.8880,-2.4931,18.92,0.074045,0.015644,00011100,4,100,12.4
IF000215,66566,2006/09/17 00:00:10,45.8887,-2.4898,18.84,0.071087,0.021663,00011100,6,100,12.3
IF000215,66566,2006/09/17 01:00:40,45.8881,-2.4885,18.84,0.027718,-0.018379,00011100,7,100,12.4
IF000215,66566,2006/09/17 02:00:22,45.8862,-2.4901,18.84,-0.034573,-0.058981,00011100,6,100,12.4
IF000215,66566,2006/09/17 03:00:10,45.8842,-2.4947,18.84,-0.099234,-0.061982,00011100,6,100,12.4
IF000215,66566,2006/09/17 04:00:40,45.8835,-2.5009,18.84,-0.132206,-0.021443,00011100,8,100,12.4
IF000215,66566,2006/09/17 05:00:12,45.8843,-2.5065,18.84,-0.121351,0.024904,00011100,4,100,12.4
IF000215,66566,2006/09/17 06:00:10,45.8872,-2.5104,18.84,-0.083899,0.089623,00011100,6,87,12.4
IF000215,66566,2006/09/17 07:00:10,45.8917,-2.5117,18.92,-0.027949,0.138994,00011100,5,96,12.4
IF000215,66566,2006/09/17 08:00:40,45.8964,-2.5109,18.92,0.017056,0.143971,00011100,7,93,12.4
IF000215,66566,2006/09/17 09:00:16,45.9006,-2.5089,19,0.04328,0.130598,00011100,12,100,12.4
IF000215,66566,2006/09/17 10:00:16,45.9040,-2.5061,19,0.060183,0.105017,00011100,6,84,12.4
IF000215,66566,2006/09/17 11:00:40,45.9061,-2.5032,19.16,0.061917,0.064434,00011100,6,100,12.4
IF000215,66566,2006/09/17 12:00:12,45.9071,-2.5017,19.08,0.032491,0.03113,00011100,7,80,12.4
IF000215,66566,2006/09/17 13:00:10,45.9070,-2.5020,19.16,-0.006451,-0.00309,00011100,10,100,12.4
IF000215,66566,2006/09/17 14:00:58,45.9064,-2.5044,19.16,-0.050903,-0.018289,00011100,8,100,12.4
IF000215,66566,2006/09/17 15:00:11,45.9056,-2.5096,19.16,-0.11324,-0.025037,00011100,9,100,12.4
IF000215,66566,2006/09/17 16:00:11,45.9050,-2.5175,19.24,-0.169794,-0.018532,00011100,7,100,12.4
IF000215,66566,2006/09/17 17:00:10,45.9058,-2.5266,19.16,-0.19564,0.024717,00011100,3,100,12.4
IF000215,66566,2006/09/17 18:00:40,45.9086,-2.5349,19.16,-0.176911,0.08577,00011100,4,100,12.4
IF000215,66566,2006/09/17 19:00:11,45.9133,-2.5398,19.16,-0.10616,0.14635,00011100,1,100,12.4
IF000215,66566,2006/09/17 20:00:10,45.9193,-2.5408,19.16,-0.021495,0.185376,00011100,4,100,12.4
IF000215,66566,2006/09/17 21:00:10,45.9249,-2.5390,19.16,0.038676,0.17297,00011100,6,100,12.4
IF000215,66566,2006/09/17 22:00:40,45.9297,-2.5354,19.08,0.076705,0.147035,00011100,5,100,12.4
IF000215,66566,2006/09/17 23:00:10,45.9327,-2.5314,19.08,0.086654,0.093441,00011100,6,100,12.4
IF000215,66566,2006/09/18 00:01:04,45.9333,-2.5284,19.08,0.063494,0.018259,00011100,5,100,12.4
IF000215,66566,2006/09/18 01:00:17,45.9330,-2.5267,19.08,0.037003,-0.009389,00011100,5,100,12.4
IF000215,66566,2006/09/18 02:00:10,45.9313,-2.5271,19,-0.00861,-0.052611,00011100,7,100,12.4
IF000215,66566,2006/09/18 03:00:24,45.9287,-2.5309,19,-0.081321,-0.079996,00011100,5,100,12.4
IF000215,66566,2006/09/18 04:00:58,45.9262,-2.5380,19,-0.151112,-0.076496,00011100,6,100,12.4
IF000215,66566,2006/09/18 05:00:10,45.9247,-2.5478,19,-0.2134,-0.046957,00011100,4,100,12.4
IF000215,66566,2006/09/18 06:00:11,45.9262,-2.5569,19,-0.19546,0.046318,00111100,3,100,12.4
IF000215,66566,2006/09/18 07:00:11,45.9296,-2.5633,19,-0.137499,0.105017,00111100,9,100,12.4
IF000215,66566,2006/09/18 08:00:40,45.9343,-2.5661,19,-0.059671,0.144011,00111100,6,100,12.4
IF000215,66566,2006/09/18 09:00:18,45.9398,-2.5655,19,0.012968,0.170926,00111100,9,100,12.4
IF000215,66566,2006/09/18 10:00:11,45.9444,-2.5624,19.08,0.066714,0.142359,00111100,5,100,12.4
IF000215,66566,2006/09/18 11:00:40,45.9486,-2.5581,19.24,0.091613,0.128691,00111100,8,100,12.4
IF000215,66566,2006/09/18 12:00:11,45.9505,-2.5538,19.4,0.093096,0.059163,00111100,3,100,12.4
IF000215,66566,2006/09/18 13:00:11,45.9502,-2.5509,19.4,0.062279,-0.009266,00111100,7,100,12.4
IF000215,66566,2006/09/18 14:01:04,45.9485,-2.5502,19.4,0.014815,-0.051747,00111100,6,100,12.4
IF000215,66566,2006/09/18 15:00:11,45.9457,-2.5527,19.4,-0.054494,-0.087777,00111100,7,100,12.4
IF000215,66566,2006/09/18 16:00:11,45.9423,-2.5586,19.32,-0.12672,-0.105017,00111100,7,100,12.4
IF000215,66566,2006/09/18 17:00:10,45.9404,-2.5669,19.32,-0.178325,-0.058703,00111100,3,100,12.4
IF000215,66566,2006/09/18 18:01:34,45.9398,-2.5760,19.24,-0.191006,-0.01811,00111100,4,100,12.4
IF000215,66566,2006/09/18 19:00:18,45.9412,-2.5845,19.16,-0.186512,0.044175,00111100,4,100,12.4
IF000215,66566,2006/09/18 20:00:10,45.9449,-2.5897,19.16,-0.111936,0.114538,00111100,1,100,12.4
IF000215,66566,2006/09/18 21:00:10,45.9500,-2.5906,19.16,-0.019329,0.157526,00111100,1,100,12.4
IF000215,66566,2006/09/18 22:01:04,45.9552,-2.5892,19.16,0.02962,0.158241,00111100,5,100,12.4
IF000215,66566,2006/09/18 23:00:16,45.9596,-2.5860,19.16,0.069641,0.137741,00111100,3,100,12.4
IF000215,66566,2006/09/19 00:00:22,45.9631,-2.5822,19.16,0.081455,0.107926,00111100,3,100,12.4
IF000215,66566,2006/09/19 01:01:10,45.9648,-2.5779,19.08,0.091107,0.051818,00111100,6,100,12.4
IF000215,66566,2006/09/19 02:00:16,45.9643,-2.5755,19.08,0.052313,-0.015679,00111100,8,100,12.4
IF000215,66566,2006/09/19 03:00:16,45.9619,-2.5765,19.08,-0.021471,-0.07413,00111100,7,100,12.4
IF000215,66566,2006/09/19 04:01:34,45.9586,-2.5807,19.08,-0.088268,-0.099767,00111100,4,100,12.4
IF000215,66566,2006/09/19 05:00:11,45.9562,-2.5883,19.08,-0.167044,-0.075879,00111100,3,100,12.4
IF000215,66566,2006/09/19 06:00:22,45.9551,-2.5970,19.08,-0.18625,-0.033873,00111100,3,100,12.4
IF000215,66566,2006/09/19 07:00:22,45.9562,-2.6045,19.08,-0.161051,0.033976,00111100,3,100,12.4
IF000215,66566,2006/09/19 08:00:40,45.9594,-2.6088,19.08,-0.091873,0.098348,00111100,1,100,12.4
IF000215,66566,2006/09/19 09:00:08,45.9642,-2.6089,19.08,-0.002166,0.14959,00111100,1,100,12.4
IF000215,66566,2006/09/19 10:00:07,45.9692,-2.6056,19.16,0.070868,0.15448,00111100,1,100,12.4
IF000215,66566,2006/09/19 11:00:40,45.9737,-2.6012,19.48,0.093598,0.137731,00111100,9,100,12.4